TIMESTAMP,CO2_1_1_1,H2O_1_1_1,TAU_1_1_1,TAU_SSITC_TEST_1_1_1,H_1_1_1,H_SSITC_TEST_1_1_1,LE_1_1_1,LE_SSITC_TEST_1_1_1,FC_1_1_1,FC_SSITC_TEST_1_1_1,WD_0_0_1,WS_0_0_1,WS_MAX_0_0_1,U_SIGMA_0_0_1,V_SIGMA_0_0_1,W_SIGMA_0_0_1,USTAR_0_0_1,MO_LENGTH_0_0_1,ZL_0_0_1,FETCH_MAX_0_0_1,FETCH_70_0_0_1,FETCH_80_0_0_1,FETCH_90_0_0_1,PA_0_0_1,RH_0_0_1,TA_0_0_1,VPD_0_0_1,T_SONIC_0_0_1,T_SONIC_SIGMA_0_0_1
[yyyymmddHHMMSS],[mmolCO2 mol-1],[mmolH2O mol-1],[kg m-1 s-2],[#],[W m-2],[#],[W m-2],[#],[umolCO2 m-2 s-1],[#],[Decimal degrees],[m s-1],[m s-1],[m s-1],[m s-1],[m s-1],[m s-1],[m],[#],[m],[m],[m],[m],[kPa],[%],[deg C],[hPa],[deg C],[deg C]
20220130003000,422.78032985857783,2.4502736173891875,0.20549236410154964,0,-15.199214416738903,0,0.97470788826579258,0,0.85145806541997426,0,177.02071021500083,1.6083462520727108,5.4417431172396737,0.85547018612639114,0.68997461577072416,0.54037196462915826,0.40992838796308712,375.25752065057452,5.0631896642764622E-002,100.38458972131372,183.53504603335949,219.64457459710414,274.96894342218957,93.170019435763891,68.151724137931041,-7.9634482758620493,1.0671275403711642,-8.4663467712402394,8.6289200041964012E-002
20220130010000,422.60110612412973,2.4475304369556437,0.22802685385346785,0,-12.218700974904431,0,3.4808817657250049,0,1.0304759820028768,0,173.49041037705655,2.1445560585759336,6.5588838887705654,1.0033972270096412,0.85468424871090620,0.61143886305931316,0.43177334446826493,545.49901404667742,3.4830493751129316E-002,94.793188303449753,173.31218095548621,207.41041605506229,259.65322868561827,93.177617850768144,68.271000000000001,-7.9993333333333112,1.0601719372371048,-8.5139665118904873,7.0898979658498909E-002
20220130013000,422.89772474609583,2.4320558274725972,0.21998865940920506,0,-8.4773481442999614,0,3.0033392236431893,0,0.23195657122915786,1,173.74072281873435,1.9918080919919881,5.6727260184858128,0.99594752126138719,0.79558763234192276,0.57226754785750666,0.42393119277113356,744.32850175416922,2.5526363635441123E-002,98.494482640927032,180.07932747167774,215.50896208160700,269.79164730242087,93.204236978515624,68.533666666666662,-8.1266666666666652,1.0410410280059545,-8.6439704174465533,6.5698764917598448E-002
20220130020000,423.60515913943493,2.4239507520534205,0.19403387406196329,0,-10.147598973571117,0,2.9026315040016955,0,0.30320092480341071,0,176.14754715704993,1.8174601492812987,5.1586247125511306,0.94952564227230696,0.77073531732592193,0.60016214756434760,0.39804075026900521,514.71208426073099,3.6913840923881280E-002,90.153387116650833,164.82914459732723,197.25838813206315,246.94409440948104,93.206499525824654,68.962000000000003,-8.2493333333333112,1.0171156803994759,-8.7676370680067066,5.4733711691056834E-002
20220130023000,424.33485729465167,2.4258453337756691,0.10774774583793206,0,-6.2293512519840952,0,2.0725964087973789,0,2.2698779016371372E-002,2,172.50712020046169,1.9395524476808603,5.3029933108649603,0.78253006523099777,0.68842932473985918,0.49322009871021422,0.29658389034207139,346.78817607840040,5.4788488508629433E-002,83.356665492030331,152.40256976433972,182.38695184847447,228.32682089125453,93.182372534505205,69.667666666666662,-8.3733333333333348,0.98443694890092159,-8.8951201121012673,6.1881402914849511E-002
20220130030000,424.76673966816736,2.4328956042182757,0.16077896748761161,0,-8.4188492197124507,0,2.9319349426133017,0,0.38257433268649915,0,171.66986681722312,1.7495319988902969,4.2734235771851123,0.70602949728362518,0.57666556942538949,0.47505479518671651,0.36226618631996305,467.51830473450423,4.0640119985868320E-002,100.80502326364945,184.30373263915007,220.56449613893693,276.12057603070298,93.153378296006949,70.504999999999995,-8.4933333333333394,0.94834650102997642,-9.0180670377942533,6.2160656829328746E-002
20220130033000,425.04566755745287,2.4372047683619962,9.3105822281771264E-002,0,-5.3258579318896375,0,2.0165050779180826,0,0.52397720547245996,0,159.36582199984832,1.3758753721036774,3.7583553430020249,0.55089770004322336,0.50978869965076645,0.37064956854822501,0.27563513894353620,325.47611254120483,5.8376019830317427E-002,98.798821993925699,180.63575687301756,216.17486596095870,270.62527994034031,93.134518621310775,71.367333333333335,-8.6290000000000191,0.91092264915436039,-9.1568811230129086,5.9619024841294305E-002
20220130040000,424.87519459071132,2.4399878898385237,4.3673507415157221E-002,0,-1.8113432980556592,1,0.38792212316776770,1,0.47798189975721617,0,146.74519828913213,1.1639886469104423,2.5045268997870060,0.42398756818787170,0.32273292601103598,0.25024738294773774,0.18875148510620712,307.25808653701432,6.1837265909390919E-002,65.196996033154974,450.00000000000000,761.00000000000000,1780.0000000000000,93.112998041883685,72.219999999999999,-8.7693333333333499,0.87415655325640873,-9.2964316669040272,4.9529801746195742E-002
20220130043000,424.67289968352350,2.4430411458795898,3.1646171565751509E-002,0,-2.6118718942875727,0,0.26854603130202220,0,0.21510730853981408,0,151.01058105531078,1.0677552868229119,2.6432606563419179,0.40626734393497865,0.32792621369754027,0.22963130084367786,0.16063411834697366,131.34332768950665,0.14465904233000454,70.212338843477426,554.00000000000000,972.00000000000000,2425.0000000000000,93.117131262762541,72.968999999999994,-8.8846666666666465,0.84294757686218191,-9.4070709806750301,4.7374287521544746E-002
20220130050000,424.78237443420386,2.4451122749804548,5.2071806499461949E-002,0,-7.0027609052211917,0,1.4776307454797282,0,0.79476966296024609,0,186.46248027034420,1.1747252955037399,3.2729253335471302,0.52003709624975780,0.46653119596233555,0.25579744527161019,0.20602396089590932,103.36148624962100,0.18382088618689604,105.31060882947627,192.54138003629524,230.42285614881769,288.46207292751825,93.125654902470757,73.323999999999998,-8.9346666666666579,0.82862720007230539,-9.4556630516359519,6.3843880217887672E-002
20220130053000,424.98457263322666,2.4410862824138881,2.3977757280056577E-002,0,-3.5454209620348469,0,0.44443361459267827,0,0.16762174902138050,0,217.84573005611543,1.5447889545179425,2.7906075982189775,0.37261836168495299,0.36153227746394756,0.20391256450553474,0.13978838916370279,63.778560076882492,0.29790575354941007,160.55312385273382,1498.0000000000000,2756.0000000000000,7468.0000000000000,93.142081784722222,73.292666666666662,-8.9479999999999791,0.82873475717688561,-9.4675288314818999,5.2893630549525075E-002
20220130060000,425.22028767154421,2.4433614065466416,5.2865907651523970E-002,1,-5.6449188062930942,0,0.63742096512577473,0,0.21120964057839262,0,211.63245818962451,1.8195748562651726,3.4157085217878125,0.41991563988241631,0.38500404643114189,0.28424723473037689,0.20754117854089027,131.09427546825083,0.14493386482464315,97.360170094657164,178.00544236666491,213.02705128855325,266.68458950376623,93.141915248697913,73.718000000000004,-9.0099999999999909,0.81158538913814227,-9.5283033379448625,5.1774748954071748E-002
20220130063000,425.56227986215299,2.4489786942906249,5.9855196370916394E-002,0,-2.5376622879565409,1,0.96656501613942636,1,0.39291710610369468,1,227.68452676128251,1.8175681600366245,3.4296121024627437,0.45689824384595512,0.47073030748782152,0.27173759257819796,0.22083273013364207,351.29669743907465,5.4085336237170767E-002,106.06836496754686,193.92679993061310,232.08084992113788,290.53768438576486,93.138505449001741,73.971666666666664,-9.0249999999999773,0.80280802811938889,-9.5356162456936318,6.4184174317294451E-002
20220130070000,425.44320800311687,2.4934596142804688,8.6362272850452296E-002,0,-3.3929927595351974,1,1.0480298475839216,1,0.11293356528232798,2,252.08914709803071,1.8761925089813776,3.9287307678699102,0.55033410780343295,0.49816075427380169,0.30313832997913420,0.26529782210737451,455.58332167680982,4.1704775166195779E-002,112.54576685083522,205.76955643463739,246.25360477423939,308.28029166157609,93.147143352647575,74.781333333333336,-8.9329999999999927,0.78346080646714999,-9.4333845350477077,0.10164646305263389
20220130073000,424.82234720882269,2.5912303822878893,0.23345218388076677,0,-7.5142404063673318,0,-2.3071075003464618,0,0.72310573408549528,0,272.97529741867777,2.6442884270148110,5.9851353182195917,0.90523239207718476,0.74190044553900270,0.54304689928830296,0.43627100356341603,914.92509987378958,2.0766727246439055E-002,105.09694894853745,192.15074163061507,229.95536174765948,287.87682541217191,93.160577296874990,76.921999999999997,-8.8003333333333558,0.72443976166490953,-9.2993341098361384,5.6837438905493212E-002
20220130080000,424.47022747198457,2.7690358115189446,0.40264137214952084,0,-4.7208223045816968,1,4.2144537003116413,2,0.40643149385810518,0,295.25362006542395,3.1084315306831356,6.8304040476119052,1.0484098980851673,0.92630835539848166,0.64976643434389969,0.57309806372177297,3301.4841541074934,5.7549874883880414E-003,113.24844161298327,207.05427000646506,247.79107879929248,310.20502669763772,93.168318175228492,81.305999999999997,-8.6593333333333362,0.59332541315235920,-9.1554740666269936,4.9536146829454730E-002
20220130083000,424.57684791739564,2.7681656295811705,0.46322929840352595,0,-7.1028538498858644,0,0.41932989468475096,2,0.39568806067994383,0,318.40226980195303,3.3011390184674996,8.5789064281336689,1.3754381686344530,1.0327506524439540,0.68546697967285408,0.61457661394518182,2707.0010533618429,7.0188373131232331E-003,114.74307729373969,209.78694072048887,251.06138771014011,314.29906538504633,93.214345368923603,81.200000000000003,-8.6403333333333308,0.59757597017692266,-9.1570053969488754,6.1876529328545128E-002
20220130090000,424.39371620131311,2.7694921762360512,0.55426700604686219,0,2.5422830838910473,0,-3.6589044523348320,0,0.48896881450858587,0,328.76703834175999,3.1346879164842676,9.0184061813909810,1.5101116986331991,0.89890047989135846,0.67962040320139905,0.67185998872121744,-9884.4801224252878,-1.9222052920005366E-003,124.06943246527450,226.83849246247573,271.46774011821628,339.84539709409063,93.259085257595501,82.483333333333334,-8.8286666666666633,0.54864703359691591,-9.3744182535806431,0.10602642573371208
20220130093000,422.92715416846926,2.8038293128625762,0.71114562118883307,0,-6.4795319900908472,2,-0.19973958046969878,2,-2.9698819711562852E-002,2,331.76601889275037,3.2154962112584724,7.9760609956240014,1.4807672886159380,0.97013607430069337,0.74407521875775351,0.76044515240774135,5624.7344396653853,3.3779372526483772E-003,127.41358744730844,232.95267433316153,278.78485423358808,349.00555568618864,93.288977563368050,85.659999999999997,-9.1496666666666897,0.43799531551912824,-9.6830919685363597,0.10567237996579699
20220130100000,422.00705517034379,2.7910965622356563,0.42455047954284303,0,-3.7069171946604955,0,0.11135146543272158,0,0.45741666922980978,0,333.84586785573265,3.0610216467863660,7.5927355145488518,1.1968232835803798,0.78297106527066695,0.61829547717608457,0.58723705592655073,4528.2236848064895,4.1959057949700097E-003,120.15692519418481,219.68518134073054,262.90705368664027,329.12843352976432,93.307075152343756,86.903333333333336,-9.3886666666666656,0.39258188531866156,-9.8968503163655441,7.1751797847647861E-002
20220130103000,421.67674897690358,2.7874770761534542,0.61225137608984059,0,-6.7534659173490610,1,-0.84789027477352219,2,-0.12195417320530989,2,334.12442953130125,3.6954486431420399,8.3428913045976962,1.4340876738647255,0.95414374265626056,0.77244847595459876,0.70491396668385142,4300.0131547090205,4.4185911336556642E-003,116.37727280050350,212.77477130677781,254.63705781934840,318.77538005732447,93.333706355034721,87.776666666666671,-9.5286666666666520,0.36239055234538170,-10.064496614668087,0.10282661158847947
20220130110000,421.60828136287995,2.7659204019901051,0.41887122393306114,0,-0.14405427000531806,2,2.0036138612084624,2,-0.32060633600115329,2,341.16422495265817,2.7922717000635644,7.1652834825294986,1.1778515869753454,0.80661347440037767,0.66772591986768137,0.58274077031541749,113912.23237951809,1.6679508076620120E-004,112.29402138784600,205.30928543819576,245.70277794635152,307.59072183654968,93.359099854370456,88.593333333333334,-9.7413333333333298,0.33256039004422971,-10.229930871706813,8.3204063264478725E-002
20220130113000,421.82738575928784,2.7013096547659297,0.21359141206432516,0,-17.158676935009705,0,-1.1650567090465160,1,4.3578188915795513E-002,0,345.02663657077591,2.6811145814159070,6.9252107503386267,0.99879055624938462,0.71672133393004600,0.48359951389586742,0.41580123619773007,347.46033901929400,5.4682500033320224E-002,110.96214315469402,202.87418724721834,242.78858734450762,303.94250101347791,93.379287268663191,88.969999999999999,-10.091666666666640,0.31280474096644867,-10.534724722968122,0.14007188338654908
20220130120000,421.92746780623207,2.7067951045330867,0.20110266562278875,0,-10.026422736925468,0,-0.75392600075835969,0,0.22269480362855459,0,329.93159515763944,2.6413072362407477,6.5176097131246147,0.88961338041082427,0.64419579210368605,0.46450238652740389,0.40334829180820803,543.00570421448583,3.4990424322494870E-002,111.84297680508104,204.48463208760992,244.71587850510488,306.35524084585683,93.432798429904523,89.189999999999998,-10.089999999999975,0.30660606990583489,-10.549516756693492,0.12922951863145798
20220130123000,421.89568067597605,2.7869387670968213,0.41073068508444888,0,-11.656817824832192,1,-10.809308178384045,1,0.10727510670057878,1,335.11078191505078,2.5479486034336314,7.2028036020195669,1.0803923887199065,0.69134234090342672,0.61609067490997294,0.57664647201048935,1365.4043151163989,1.3915292188292430E-002,118.75910143298205,217.12951369222890,259.84857223800896,325.29957768868945,93.491851239800354,89.370000000000005,-9.7379999999999995,0.30999819991508615,-10.219422382778589,8.9277568334356947E-002
20220130130000,421.60537678060996,2.9701215998045538,0.53726184890720696,0,2.5433697200708170,0,-1.4675119489912793,1,0.16069891385055066,1,333.78705530651462,3.0327254975316569,8.2192738114607558,1.3546107409801582,0.81237652459790122,0.66811882166242942,0.66012017463138117,-9383.4720854954685,-2.0248368436422705E-003,124.01389254179018,226.73694776879631,271.34621705475865,339.69326463909300,93.424977162710107,93.120000000000005,-9.4606666666666683,0.20506860670395383,-9.9921985572163976,9.2896085519841909E-002
20220130133000,421.01434994248700,3.0381213334306563,0.37121414259231533,0,5.2564523338951590,0,-0.18862582947833237,2,-7.3313015584800412E-002,2,345.53607075200330,2.7014157894725259,7.8041846673801416,1.0652365961640178,0.96619019761275882,0.61925409824444100,0.54983136820490075,-2617.4344671788290,-7.2590165057614328E-003,113.85271686433505,208.15907788964276,249.11325166358560,311.86023022899309,93.115348002170137,93.489999999999995,-9.2653333333333308,0.19704194830596350,-9.9005477218627789,6.7204247512104354E-002
20220130140000,420.71326146059300,3.0282433075662594,0.32590664603601932,0,8.4584389935266451,0,-0.10499070844449077,0,5.7365543174494160E-002,1,341.48816352920937,2.7627297376825295,8.6071870627241811,1.1416886266344430,0.81013609398183106,0.58049038611173087,0.51557216133615669,-1339.6706552675589,-1.4182590269699773E-002,113.88078235074212,208.21039054982270,249.17465981238470,311.93710594433350,92.977482567274308,93.006666666666675,-9.2596666666666465,0.21176548538856310,-9.9384651294284367,7.1188458830285836E-002
20220130143000,420.67005908909141,3.0135830795463634,0.22022778189144621,0,6.7538849051421881,0,0.31323565208685927,0,0.11364874648956003,0,340.99345834676376,1.8913719603912911,5.4596467164026512,0.78476175169689211,0.74613183240064873,0.50181000584286162,0.42375877505877124,-931.74555343577117,-2.0391833296052046E-002,109.37508664997473,199.97254179088043,239.31605882386137,299.59530737085328,93.000278667184901,92.629999999999995,-9.2666666666666515,0.22304871301671711,-9.9133815474878588,5.4802969781124276E-002
20220130150000,420.69112977963420,3.0047200061829216,0.20232444788380008,0,9.8892449178287247,0,1.3403173203653498,0,0.11853415254525049,0,334.78983411038644,2.1942916646860819,4.9361798429552444,0.82407028509211522,0.55308683030457295,0.44481715104080122,0.40602322447207834,-560.10704164345850,-3.3922087364319606E-002,116.39930336893723,212.81505021216407,254.68526138171976,318.83572519737061,93.086417158420147,92.040000000000006,-9.2110000000000127,0.24195982433991389,-9.8267034344142985,5.7920088465171167E-002
20220130153000,420.63781547230241,2.9908536019170069,0.30090023974222307,0,15.024835521692312,0,3.4156905793691794,0,6.9332406532951654E-002,0,332.20218513207658,2.1685523430546807,6.6010135171155344,1.0568692390582188,0.65282798428044209,0.48600015356027942,0.49460982171588314,-667.54244293409238,-2.8462609682896076E-002,126.98603513970735,232.17097235405214,277.84935661406536,347.83442367673211,93.302711378472225,91.566666666666663,-9.1746666666666670,0.25707968613415971,-9.7481814812554148,7.7575120634964426E-002
20220130160000,420.65483630322638,3.0044897072773833,0.19801454717605238,0,22.592528003592765,1,6.3350959527790094,1,7.6602342083056073E-003,2,336.15178574741662,1.7550846824643227,4.9483490928616929,0.79997765880366045,0.55189917992996940,0.42950083486383311,0.40100965167518188,-236.85979359862517,-8.0216231346535646E-002,118.52434128776066,216.70029727385611,259.33490980861961,324.65653328049524,93.450242742838540,91.283333333333331,-9.0570000000000164,0.26818012050740098,-9.5867052061292384,0.10106909622100428
20220130163000,420.63014702190958,2.9596437654746062,0.26940419887864886,0,31.813335918773170,0,9.4210323210614870,0,0.17654553302538228,1,332.88549314955310,2.0046453240019182,5.0512466016104973,0.89904183787733161,0.74813828741624477,0.50993957669269396,0.46741054479994337,-266.64935324398806,-7.1254626230481510E-002,116.78813661572977,213.52596139930438,255.53604050347602,319.90079970068621,93.590642601128465,89.886666666666670,-9.0330000000000155,0.31173631368362581,-9.4339075783623230,0.11427406247537260
20220130170000,420.45940093641451,2.8960385094007757,0.27311530776340903,0,31.961442489815674,0,7.7530642412472881,0,0.37615926748198825,0,314.34499136603011,2.2438537478518463,5.4628503702579252,1.0020933115164836,0.78698387549101867,0.49942846086585857,0.47041115420533297,-270.86653674754996,-7.0145246541503101E-002,119.35987584158524,218.22792091832565,261.16308515052680,326.94519186938510,93.741166001519105,86.743333333333339,-8.8353333333333239,0.41500123796443178,-9.3488865271673944,0.11130654927003879
20220130173000,420.18721569367000,2.8421774254416556,0.33135086884273401,0,46.623097669726455,0,22.280742680012942,1,0.54166746062069526,1,328.80287302878003,2.0546763247139035,5.4365962343104606,1.0035035364790834,0.60555045054233547,0.48244422422000427,0.51822173077418932,-248.30117533583024,-7.6519976090738503E-002,132.58967528849553,242.41621373539786,290.11029387637609,363.18366219340152,93.767546874782994,84.086666666666673,-8.6739999999999782,0.50449195198074448,-9.2489616139729378,0.15232386475725090
20220130180000,419.87532814860441,2.7773580451623747,0.41877735210720257,0,69.877416315949773,0,26.294073760700766,0,0.39954829133582626,2,301.38691171113436,2.0089354918278963,5.2447759297662726,1.0836015859817589,0.76781062503062569,0.56268178279583603,0.58277301472504861,-235.59335611777121,-8.0647435535075335E-002,128.77873741668353,235.44860386943071,281.77184441920394,352.74491294942999,93.759211869357657,81.211333333333329,-8.5249999999999773,0.60261733268658024,-9.1535502454969446,0.17282411209615123
20220130183000,419.58831326539695,2.6402964810495715,0.17362968650436583,1,55.422531100621043,0,11.297442577241110,0,0.20932552962986292,0,286.73544645612179,1.9760969660436507,4.6196823600234893,0.75281584679659674,0.80911648187955720,0.49036182426096392,0.37540583412541512,-79.378144131878273,-0.23936059740113774,101.12124134381177,184.88188014227075,221.25639103923973,276.98674634264643,93.726419536198463,76.326666666666668,-8.3829999999999814,0.76774026781922633,-9.0634538898283381,0.18121646934283628
20220130190000,419.40391724953150,2.6156351967273421,0.22651008904173928,0,57.676824753357025,0,10.551987247753125,1,5.9697557498623204E-002,2,288.02429084408800,2.3943448178839977,5.6463620339745972,0.97811720559523896,0.77940998100349268,0.55504265888608861,0.42884532788660951,-113.71140905486975,-0.16708965404546022,101.86719691372231,186.24572483439388,222.88856480491637,279.03003421648873,93.732582400276129,75.016333333333336,-8.2803333333333171,0.81674141543976675,-8.9489736257575601,0.19455356780091360
20220130193000,419.30609402228896,2.5350001312558783,0.27313194296920879,0,57.959042010487906,0,9.6886680412454940,0,7.1561253396007371E-002,2,274.18482193521896,2.0030144789665925,5.4903606467001040,1.0078195820992775,1.0706524343261961,0.55922206395593255,0.47107348823193301,-149.96900040619587,-0.12669284951248516,109.15870927981464,199.57693494820509,238.84261847257642,299.00261623152039,93.719980403204517,71.850333333333339,-8.1303333333333399,0.93104596823793973,-8.7783031081687000,0.20571187146769249
20220130200000,419.33596969087034,2.6013410220702871,0.35570994654081411,0,54.873950780988430,0,11.125199084420508,1,0.46390899141359715,0,270.63791450564167,2.2386900323774883,5.8663448449618079,0.98803072534116898,0.87495577702467686,0.62627065804884952,0.53771217563812967,-235.59374164949057,-8.0647303561516670E-002,110.83709752989823,202.64556396383512,242.51498366549922,303.59998167435299,93.725608457465285,72.989999999999995,-7.9996666666666556,0.90247100575491968,-8.6162357821993965,0.19106022017658222
20220130203000,419.20776029177745,2.5816974949380174,0.47511683116736153,0,52.495039923419135,0,15.075481840139656,1,0.49654267439139693,1,263.00549020163112,2.0193698045920248,5.9459739182207265,1.0901667362824070,1.0802500871318323,0.64038794163007651,0.62166058203229557,-380.53758488777083,-4.9929365073369904E-002,122.27651371401907,223.56046516307370,267.54477866068635,334.93431486480438,93.718403211371523,71.504000000000005,-7.8333333333333144,0.96449566018122712,-8.4620122409396572,0.16265147380497316
20220130210000,419.56261547354745,2.6709417982777857,0.29175832986657690,0,33.141965659626592,0,13.671832993144651,1,0.59216702744053229,1,299.63584174089272,2.2516735715083382,5.4221494646856581,0.95686883201900108,0.89289959331975521,0.54023635073128884,0.48699295925531599,-289.81966485883510,-6.5558008319602776E-002,115.24073068566400,210.69680983933526,252.15026866158374,315.66221512493956,93.741551518216866,74.668999999999997,-7.9503333333333330,0.84962061381418130,-8.5621211020937835,0.12578660762987939
20220130213000,419.79989755849732,2.7392047107661854,0.29804484633381445,1,26.187924960572460,1,3.5868548168900936,1,-1.8816175575799756E-002,2,310.00802308149730,1.5493516468596529,5.2746397326932781,1.0045512226217794,0.59440080801540185,0.44497583231391602,0.49200747845599158,-378.29207286076092,-5.0225741862144138E-002,135.69477454757421,248.09332550160909,296.90434670595414,371.68901012439579,93.763052812065965,77.589333333333329,-8.1163333333333298,0.74203683412593824,-8.6739431194728809,8.4398434408391745E-002
20220130220000,419.92615321356391,2.7544506539747919,0.10300048240560038,1,30.745342030722796,0,4.9358958276976788,0,6.9098011778810600E-002,2,310.62199548034039,0.85980593200781019,2.6688000393013205,0.45273327099637783,0.46168470043923265,0.34329774928835904,0.28928144969124753,-65.478869091933490,-0.29016994739667334,109.18792256083270,199.63034614300420,238.90653803134148,299.08263593412346,93.734172257203937,77.983000000000004,-8.1140000000000327,0.72913446687098482,-8.6664203408532785,0.11036694537040048
20220130223000,420.02967244860946,2.7444909618355764,4.0732484025213289E-002,0,4.9390536083586429,0,0.85525719861238514,0,7.2376823592008088E-002,0,291.43501046530184,1.8192294668786679,3.3818568951948480,0.45747587207934098,0.57058250238740915,0.27143540410701145,0.18182515728961504,-101.24795810647818,-0.18765810546044304,147.58837515552966,529.00000000000000,752.00000000000000,1305.0000000000000,93.779694003689229,78.563666666666663,-8.2496666666666556,0.70245070522859632,-8.7737399037678188,6.4118582635754595E-002